Find Starlink 30381

NORAD ID: 57785 Int'l Des: 2023-134 Owner: SPXS Country: US Constellation: starlink operational
LEOCIRCULAR

Live Position

Loading 3D Globe...

About Starlink 30381

Description loading...

Upcoming Passes

Passes for default location (London). Set your location on the main map for personalized predictions.

Altitude History

Loading altitude history...

Two-Line Element Set

1 57785U 23134Q 26130.26530352 -.00005699 00000-0 -19780-3 0 9992
2 57785 43.0024 206.6720 0001537 260.3180 99.7498 15.27567786148920
Epoch: May 10, 2026 • Age: 17 hours

Current Status

Altitude 495.0 km
Velocity 7.62 km/s
Sub-Earth Point -42.15°S, 119.01°W
Launch Date Sep 4, 2023
Age 2.6 years
Type internet

Technical Details

Classification Payload
Mass 730.00 kg
Dry Mass 700.00 kg
Total Mass 730.00 kg
Length 0.30 m
Diameter 4.10 m
Span 29.00 m
Shape Box + pan
Manufacturer SPXS
Bus Type Starlink V2M
Phase Status In Orbit
Owner/State SPXS/US

Most Searched